Wind_Speed
10 11 11 12 13 11 13 14 13 13 11 10 13 13 18 21 23 23 25 25 25 25 25 23 21 19 21 21 19 24 27 17 22 20 20 19 20 22 20 18 19 19 17 15 14 14 12 13 13
10 12 12 12 11 11 15 15 15 12 11 11 13 15 15 16 19 22 23 26 26 25 25 23 22 21 22 20 21 29 28 15 21 20 18 20 21 23 21 19 19 20 19 16 15 17 14 13 12
11 10 13 11 11 12 16 14 15 11 10 11 13 15 15 18 20 21 25 28 28 26 26 24 23 22 19 21 25 29 22 17 21 21 19 21 23 23 22 20 19 19 20 18 16 18 18 15 15
13 12 10 11 11 11 12 10 10 8 7 11 13 15 15 18 19 22 26 27 28 28 26 23 20 17 18 21 27 28 20 22 21 20 21 19 24 24 23 22 20 20 20 19 18 17 19 17 17
10 7 10 11 10 8 7 7 6 7 6 7 8 11 12 15 19 25 27 26 27 28 24 18 14 14 15 22 23 23 22 22 24 26 23 19 25 25 24 23 22 22 21 21 18 17 18 19 17
6 7 9 11 10 7 7 7 6 7 7 6 8 10 13 16 18 19 21 24 24 23 22 19 16 14 16 19 21 23 24 27 29 25 20 25 27 27 26 24 23 23 23 23 21 19 18 19 18
4 6 8 11 12 11 10 8 7 8 9 9 11 13 17 17 19 21 24 25 22 19 19 18 17 16 16 18 20 21 24 24 23 22 22 28 27 27 28 25 25 26 25 25 25 23 21 20 20
3 7 11 10 13 14 13 13 10 10 11 13 16 18 18 15 17 20 22 22 23 22 19 18 17 17 17 18 18 21 24 25 27 26 27 28 29 29 29 28 27 27 27 26 26 25 24 22 22
5 8 10 11 12 13 12 14 12 13 12 14 15 15 15 15 18 20 22 20 19 21 21 17 17 17 18 19 18 19 20 23 26 27 28 29 30 30 29 30 31 29 26 24 25 25 24 24 23
9 12 11 12 11 13 11 13 12 14 14 18 13 14 14 13 17 20 20 20 20 21 24 23 23 21 22 23 23 22 22 25 27 29 30 30 30 29 28 28 30 30 26 24 26 27 27 27 26
12 13 13 12 11 10 11 12 13 13 15 18 16 15 13 13 16 18 19 21 20 22 24 25 25 24 23 26 27 27 28 27 28 30 29 30 29 29 29 29 30 32 31 25 30 31 31 30 29
13 15 16 16 15 8 5 9 12 15 16 18 20 18 14 14 18 21 23 24 24 26 26 25 26 26 26 26 26 28 28 28 28 29 30 30 31 31 32 32 32 35 33 29 31 34 34 34 33
14 17 19 16 14 13 10 12 13 16 19 21 22 20 21 21 21 24 26 26 27 26 27 26 26 27 26 28 28 28 29 30 31 31 30 31 33 34 35 35 35 36 37 34 34 35 36 37 36
14 15 19 18 17 14 15 15 16 19 20 22 25 26 25 25 27 27 29 29 31 31 28 27 29 29 28 29 31 33 33 33 34 35 36 37 38 39 39 38 39 38 39 39 41 40 38 39 38
18 14 17 20 23 24 21 21 20 22 24 26 28 30 31 30 30 32 33 34 35 33 32 30 32 33 33 35 34 36 38 39 38 38 39 41 41 42 42 42 43 43 43 43 44 45 44 41 39
21 20 18 19 23 26 24 20 27 27 27 28 32 36 37 35 32 32 33 36 37 38 37 35 34 37 40 41 40 40 41 43 42 42 41 43 45 45 46 46 47 47 50 50 46 45 43 45 45
21 23 20 21 23 29 27 25 26 29 30 30 34 39 41 40 38 35 35 36 38 40 41 40 39 40 43 44 44 45 45 46 47 45 45 46 46 46 49 49 49 51 53 55 51 48 48 42 40
24 23 23 22 26 29 29 31 30 31 34 34 40 45 45 43 42 40 39 39 38 40 43 41 43 41 43 45 46 49 50 50 51 52 52 52 52 52 51 51 52 53 54 56 58 55 50 46 40
24 25 25 27 30 34 30 33 34 34 38 39 43 46 47 45 43 43 44 44 42 42 42 44 45 46 46 48 49 52 52 56 55 55 56 54 54 55 54 53 53 55 56 57 58 56 52 45 42
28 30 31 32 34 37 40 40 39 41 39 42 43 43 44 46 48 49 50 49 48 47 46 46 46 46 46 46 47 49 54 56 58 58 58 57 58 57 59 58 57 57 56 57 58 55 52 49 47
31 34 35 38 38 39 44 42 45 45 41 43 45 45 46 46 47 48 50 52 51 49 47 47 47 46 46 48 50 52 56 57 59 60 60 61 63 65 66 63 61 60 60 58 59 57 50 46 46
37 38 40 41 43 43 45 45 45 48 52 53 45 45 45 46 49 49 49 50 51 50 49 46 45 47 50 52 54 56 59 62 64 64 63 62 66 69 71 71 65 65 66 64 61 56 49 46 44
41 43 45 46 48 51 49 52 53 54 54 53 52 52 50 48 47 45 44 45 44 44 46 48 51 55 58 59 60 62 64 65 68 68 67 66 73 72 76 77 76 65 66 62 57 52 48 47 44
41 44 48 49 48 51 52 53 52 53 56 56 55 56 56 55 51 45 44 45 47 49 50 55 59 59 59 61 62 62 62 66 68 69 61 65 71 57 61 67 73 70 63 61 51 47 49 41 40
39 41 44 49 51 52 53 53 54 57 57 57 57 57 56 54 52 53 52 52 52 54 56 61 64 68 72 76 78 72 62 56 59 61 64 65 67 69 74 66 57 68 46 49 48 47 43 42 41
49 46 45 48 50 51 55 57 60 58 58 59 58 56 54 53 55 56 55 56 58 57 60 63 68 73 76 78 80 75 57 54 54 61 66 69 67 50 41 36 48 40 42 49 41 42 42 47 41
50 47 49 51 53 56 56 57 60 60 60 59 55 54 54 55 54 54 58 59 59 62 66 70 74 79 81 82 81 62 54 48 49 60 60 63 56 48 34 38 39 37 40 40 45 46 48 38 35
55 55 55 54 57 58 56 56 62 65 63 56 52 51 54 55 57 57 59 62 66 70 75 77 79 81 79 71 60 53 48 42 51 56 36 31 27 39 25 31 35 39 39 41 40 32 35 40 39
60 58 59 58 59 61 62 58 65 61 54 53 52 54 55 56 56 60 64 67 73 75 77 80 77 62 58 52 48 42 35 33 31 26 24 27 29 24 22 28 34 30 31 36 36 45 45 39 35
59 60 60 62 61 63 63 56 55 52 50 50 53 54 55 57 61 63 70 73 76 77 76 67 58 50 46 40 44 41 33 32 26 24 26 30 23 25 27 26 22 33 34 39 44 46 38 36 33
Wind_Direction
288 287 270 269 265 271 274 283 288 294 294 285 285 277 274 273 278 274 282 283 276 275 271 275 282 291 300 300 282 268 293 287 305 302 303 308 311 314 319 321 320 318 317 315 312 300 292 283 284
280 276 270 262 263 277 282 293 295 297 294 282 275 273 281 286 291 288 288 301 299 288 283 280 278 279 282 284 273 276 276 284 304 297 295 302 305 307 316 315 316 315 311 314 312 301 290 287 286
273 281 264 256 262 274 284 294 293 297 292 280 273 278 285 278 282 282 285 291 290 285 283 281 275 273 265 269 262 286 283 306 289 288 289 295 300 305 309 307 307 306 304 310 312 306 300 295 291
270 276 268 272 276 282 288 294 295 306 298 286 287 282 288 287 292 291 290 292 294 291 289 283 278 274 258 261 266 280 290 289 275 271 274 281 296 301 304 304 301 301 299 301 305 307 306 301 297
257 253 265 270 271 280 309 321 332 335 314 300 296 303 308 305 298 288 284 283 283 283 288 288 286 275 266 263 261 270 273 267 259 254 263 287 293 296 300 300 297 297 293 292 294 299 303 302 303
238 246 266 276 283 301 315 338 321 316 314 304 300 305 300 302 293 286 285 280 283 287 292 287 285 284 272 264 266 268 267 257 264 265 283 287 292 296 298 295 292 293 291 288 288 290 292 296 300
264 270 271 275 292 303 311 315 299 304 303 295 286 284 286 291 297 291 288 292 304 308 309 310 305 299 293 286 279 273 276 286 283 282 282 288 290 294 296 292 291 292 290 286 287 287 287 291 294
272 264 266 287 298 308 322 318 311 298 291 285 275 274 283 297 303 296 297 308 312 316 314 309 308 308 304 296 282 273 278 279 281 284 284 287 291 292 292 291 290 290 291 287 285 287 288 288 291
274 270 286 298 301 307 315 304 300 300 290 277 274 279 285 292 288 291 291 298 299 300 297 295 295 297 300 297 290 282 277 273 273 275 277 282 285 286 288 289 290 286 284 281 284 285 284 284 285
300 297 304 306 302 298 286 288 288 284 278 271 275 268 271 274 278 285 291 290 287 288 291 293 292 290 287 288 286 280 275 271 271 272 275 278 280 282 283 284 285 280 272 277 281 279 278 276 277
300 289 292 280 263 255 271 278 278 281 283 277 275 268 273 274 274 279 282 283 283 283 284 287 286 284 285 287 288 288 283 277 273 271 271 273 276 279 281 282 283 284 283 278 282 280 277 274 273
301 286 281 286 284 267 259 274 281 279 274 280 283 295 297 291 285 284 280 279 277 275 277 279 279 283 288 286 283 281 280 279 277 276 278 277 277 278 278 278 280 280 277 276 277 278 277 276 275
294 282 276 279 281 287 285 283 291 296 298 298 298 298 297 295 294 288 282 279 279 277 279 278 280 287 287 285 283 278 278 279 280 278 276 278 281 281 280 277 275 276 277 275 273 275 276 275 273
279 278 276 282 287 286 295 289 299 299 298 297 296 297 294 289 287 284 285 286 284 282 282 284 284 285 285 278 275 275 273 273 274 273 274 278 278 275 275 276 274 271 272 273 270 268 271 272 271
270 270 275 275 274 277 282 293 305 305 299 302 304 301 299 293 288 288 289 290 289 287 287 284 281 283 282 279 274 271 271 270 269 269 273 275 274 274 276 277 276 276 272 268 268 267 263 264 266
276 276 276 277 277 272 280 292 298 301 308 310 309 306 302 296 289 283 284 285 285 285 283 282 279 279 278 276 273 273 273 274 272 271 270 270 272 274 273 273 273 272 272 272 272 272 271 265 260
277 281 278 276 271 276 286 297 296 293 298 305 305 302 303 298 294 292 287 280 278 278 278 280 277 273 270 268 267 271 272 273 274 273 271 270 271 270 272 274 273 271 272 273 270 268 268 263 262
280 279 284 283 276 275 288 294 296 294 291 294 296 299 300 296 293 291 288 283 274 272 273 271 271 270 264 260 263 266 268 270 270 272 274 274 274 275 274 273 272 271 269 268 271 269 265 263 257
279 279 277 276 278 278 281 283 285 290 289 289 289 294 294 293 291 291 290 287 282 276 269 269 269 268 264 258 260 264 265 266 269 271 273 273 273 274 273 272 269 267 266 265 265 268 265 259 258
282 281 281 280 281 282 281 279 280 280 285 284 287 290 290 290 291 291 291 289 285 281 278 276 276 276 274 269 265 264 265 268 269 271 272 272 271 269 268 265 264 264 261 259 262 258 258 258 260
284 284 284 285 283 284 283 285 285 291 291 290 290 291 291 290 289 289 290 288 286 283 282 282 282 283 282 282 281 281 280 275 273 272 271 270 270 269 267 264 262 260 257 253 253 252 252 252 256
292 290 289 288 288 289 289 289 291 290 291 292 292 291 289 287 285 284 283 280 278 278 279 279 281 285 287 286 285 282 279 278 278 276 274 274 271 270 270 265 258 256 254 248 245 243 245 245 249
291 290 289 288 289 289 289 289 294 290 291 291 291 292 291 289 286 282 277 274 275 276 278 282 286 287 286 285 285 283 282 280 279 277 277 281 276 269 272 264 260 246 244 239 236 238 236 242 243
293 293 292 291 290 289 290 289 286 288 291 293 292 291 290 290 288 280 272 269 271 275 277 281 284 284 284 283 281 282 278 273 273 273 266 274 269 262 272 252 254 248 233 236 238 237 242 240 243
291 290 290 289 292 293 291 289 285 286 289 290 290 291 290 288 286 283 281 282 284 286 288 290 294 297 295 294 294 292 288 278 269 269 267 266 262 271 270 262 259 243 227 237 240 246 238 243 248
297 296 293 291 293 291 290 290 291 290 290 290 291 292 290 288 285 284 285 286 288 291 292 292 294 295 295 293 290 288 283 275 272 262 263 261 260 262 258 248 233 237 241 246 242 239 241 244 245
296 295 292 291 291 290 289 292 291 289 289 291 292 289 287 283 282 284 288 290 291 294 295 295 295 296 295 293 292 289 286 282 264 262 255 247 257 259 243 238 236 239 234 229 232 236 244 257 257
296 295 296 294 292 292 296 295 289 290 295 293 290 286 282 282 286 292 296 297 299 301 300 298 298 298 296 292 287 284 286 284 266 271 291 295 254 235 246 234 233 236 241 249 244 251 248 248 251
293 295 294 290 289 292 293 296 290 293 294 289 285 285 288 289 294 297 299 300 300 298 298 297 297 294 290 286 282 288 282 277 274 274 272 228 226 245 281 258 247 250 246 242 251 245 243 248 257
294 292 289 287 290 289 288 298 288 288 287 282 286 287 289 294 298 300 299 298 301 299 298 295 290 286 283 279 276 271 276 260 248 245 248 242 246 215 224 226 232 241 245 242 247 243 240 250 249
Height
5855 5854 5854 5854 5856 5855 5854 5855 5855 5855 5856 5856 5855 5855 5854 5854 5855 5857 5854 5853 5852 5851 5850 5851 5851 5850 5848 5849 5848 5847 5847 5845 5846 5843 5842 5841 5840 5839 5838 5836 5835 5834 5832 5831 5829 5831 5829 5829 5828
5851 5852 5852 5851 5853 5853 5851 5852 5852 5853 5854 5853 5852 5851 5852 5853 5852 5851 5850 5849 5848 5848 5847 5846 5846 5846 5845 5844 5843 5844 5843 5842 5843 5840 5839 5839 5837 5836 5835 5833 5832 5830 5829 5828 5827 5828 5827 5826 5825
5849 5849 5850 5849 5850 5852 5851 5850 5849 5849 5850 5849 5849 5850 5850 5850 5849 5848 5847 5845 5844 5843 5842 5841 5840 5839 5838 5837 5836 5836 5840 5835 5838 5837 5836 5836 5835 5833 5832 5831 5829 5828 5826 5825 5824 5825 5824 5823 5823
5846 5847 5848 5848 5848 5848 5848 5848 5846 5846 5847 5846 5846 5846 5846 5845 5845 5844 5842 5840 5839 5838 5837 5837 5836 5834 5833 5834 5834 5834 5832 5832 5834 5833 5832 5831 5831 5831 5830 5828 5827 5825 5823 5822 5821 5821 5821 5820 5820
5845 5845 5845 5845 5845 5845 5845 5845 5844 5844 5844 5844 5844 5844 5843 5843 5842 5840 5838 5837 5835 5833 5832 5831 5830 5830 5829 5830 5830 5830 5829 5829 5830 5828 5827 5827 5828 5827 5826 5825 5824 5822 5820 5819 5818 5817 5817 5817 5816
5843 5843 5843 5842 5842 5842 5842 5843 5843 5842 5842 5841 5841 5841 5840 5840 5838 5836 5835 5833 5832 5830 5829 5828 5828 5827 5827 5827 5827 5828 5826 5824 5825 5826 5825 5824 5823 5823 5822 5821 5819 5818 5818 5816 5815 5814 5814 5814 5813
5842 5842 5842 5841 5840 5839 5840 5840 5841 5840 5840 5840 5839 5838 5837 5837 5835 5833 5831 5829 5828 5828 5827 5826 5825 5825 5826 5825 5825 5824 5824 5821 5822 5821 5821 5819 5819 5818 5818 5816 5815 5814 5813 5812 5812 5811 5811 5810 5810
5840 5840 5839 5839 5837 5837 5837 5837 5838 5838 5838 5837 5836 5836 5834 5833 5832 5829 5827 5827 5825 5824 5824 5823 5822 5821 5820 5820 5820 5820 5820 5820 5819 5819 5818 5817 5816 5815 5814 5813 5811 5810 5809 5808 5807 5807 5807 5807 5807
5838 5838 5837 5837 5836 5834 5835 5833 5835 5835 5835 5834 5833 5832 5831 5830 5829 5826 5824 5823 5822 5820 5818 5817 5817 5816 5816 5816 5815 5815 5815 5814 5814 5813 5812 5811 5811 5810 5809 5808 5807 5805 5805 5804 5804 5803 5802 5802 5802
5836 5836 5837 5836 5835 5834 5833 5833 5833 5833 5832 5831 5831 5829 5828 5827 5825 5824 5822 5820 5819 5818 5817 5816 5814 5812 5811 5810 5810 5810 5808 5809 5809 5808 5807 5806 5805 5805 5804 5802 5802 5799 5798 5799 5798 5798 5798 5797 5796
5836 5834 5833 5833 5833 5833 5831 5830 5831 5830 5829 5827 5826 5824 5824 5823 5821 5819 5818 5816 5816 5815 5814 5812 5810 5809 5808 5807 5807 5805 5804 5804 5803 5802 5800 5800 5799 5798 5798 5797 5796 5794 5793 5793 5793 5793 5792 5792 5791
5834 5832 5830 5829 5828 5830 5829 5827 5826 5825 5824 5822 5821 5821 5821 5820 5818 5816 5813 5812 5811 5810 5809 5808 5808 5806 5806 5803 5802 5801 5800 5799 5798 5797 5796 5795 5793 5793 5791 5790 5790 5788 5786 5786 5786 5787 5786 5786 5785
5830 5829 5827 5826 5825 5825 5826 5825 5824 5823 5821 5819 5818 5818 5816 5814 5813 5810 5808 5807 5806 5804 5803 5803 5802 5802 5799 5798 5796 5793 5793 5792 5792 5790 5789 5788 5787 5786 5785 5783 5783 5781 5780 5779 5778 5778 5779 5779 5778
5826 5825 5824 5824 5823 5822 5822 5821 5820 5819 5817 5815 5814 5812 5810 5808 5806 5804 5802 5801 5799 5798 5798 5797 5795 5793 5793 5790 5789 5787 5785 5784 5784 5782 5781 5780 5779 5776 5774 5775 5775 5774 5772 5771 5771 5770 5770 5771 5770
5821 5822 5820 5820 5818 5817 5818 5817 5816 5814 5813 5812 5810 5808 5806 5804 5802 5800 5798 5795 5793 5792 5792 5791 5788 5786 5784 5783 5782 5780 5779 5777 5775 5774 5773 5772 5770 5768 5769 5768 5767 5765 5764 5763 5762 5761 5760 5761 5762
5817 5817 5816 5814 5812 5811 5811 5814 5810 5808 5807 5806 5804 5802 5799 5797 5795 5793 5792 5789 5786 5784 5783 5782 5781 5779 5776 5774 5772 5770 5768 5767 5766 5766 5764 5762 5760 5759 5758 5757 5756 5755 5754 5754 5753 5752 5751 5751 5751
5812 5811 5812 5810 5808 5803 5805 5806 5804 5801 5801 5799 5797 5793 5791 5790 5787 5785 5783 5781 5778 5775 5774 5773 5771 5770 5767 5764 5762 5759 5757 5756 5754 5753 5751 5750 5750 5749 5748 5747 5747 5746 5746 5744 5744 5742 5742 5742 5742
5805 5805 5805 5804 5803 5800 5800 5797 5796 5794 5792 5791 5788 5785 5783 5780 5778 5776 5773 5771 5769 5767 5764 5763 5761 5759 5757 5755 5752 5750 5747 5744 5742 5739 5739 5739 5737 5737 5735 5734 5735 5734 5734 5733 5734 5733 5732 5732 5732
5800 5799 5799 5796 5795 5792 5793 5790 5787 5785 5782 5780 5777 5776 5774 5770 5768 5765 5763 5761 5758 5755 5753 5751 5749 5747 5746 5744 5742 5740 5738 5734 5732 5729 5728 5726 5725 5723 5722 5721 5720 5720 5721 5721 5721 5721 5722 5721 5721
5793 5792 5792 5790 5788 5786 5783 5782 5779 5776 5776 5772 5769 5766 5763 5761 5759 5756 5753 5750 5746 5744 5742 5740 5738 5736 5735 5734 5733 5730 5728 5724 5720 5717 5715 5712 5709 5708 5706 5704 5704 5704 5705 5706 5708 5708 5710 5711 5712
5786 5784 5782 5780 5779 5778 5773 5773 5769 5768 5767 5764 5761 5758 5755 5752 5749 5746 5742 5738 5735 5733 5730 5728 5725 5724 5721 5719 5717 5715 5712 5710 5706 5704 5701 5698 5695 5692 5690 5690 5690 5690 5691 5692 5692 5694 5697 5698 5700
5777 5776 5773 5771 5769 5767 5763 5762 5759 5756 5752 5749 5750 5747 5744 5741 5737 5734 5730 5727 5724 5721 5717 5715 5713 5710 5707 5704 5701 5699 5697 5695 5692 5688 5685 5683 5681 5678 5677 5673 5672 5673 5674 5676 5677 5679 5683 5685 5687
5771 5768 5765 5763 5760 5757 5756 5751 5747 5742 5739 5737 5735 5731 5729 5727 5723 5720 5718 5716 5713 5710 5708 5706 5704 5700 5695 5691 5687 5684 5680 5677 5674 5672 5667 5666 5660 5654 5649 5648 5654 5657 5657 5661 5663 5666 5669 5671 5675
5760 5758 5756 5754 5751 5747 5745 5741 5739 5732 5729 5726 5724 5721 5718 5715 5713 5711 5709 5706 5703 5701 5699 5696 5692 5687 5683 5678 5673 5668 5665 5661 5658 5656 5647 5652 5649 5640 5644 5641 5639 5644 5640 5645 5652 5657 5658 5660 5662
5748 5745 5742 5739 5736 5735 5731 5730 5728 5721 5718 5714 5711 5709 5704 5701 5698 5695 5691 5690 5688 5685 5680 5676 5671 5665 5659 5654 5650 5646 5643 5640 5638 5637 5636 5636 5634 5631 5630 5631 5631 5633 5629 5639 5644 5646 5648 5649 5650
5740 5740 5736 5731 5730 5727 5718 5715 5711 5708 5703 5699 5698 5694 5691 5688 5683 5680 5678 5676 5672 5667 5661 5657 5654 5648 5643 5636 5631 5625 5622 5620 5619 5619 5617 5618 5617 5617 5614 5616 5618 5618 5622 5629 5634 5637 5638 5639 5640
5726 5726 5722 5718 5717 5714 5711 5708 5699 5694 5691 5688 5685 5680 5676 5671 5668 5666 5664 5662 5659 5653 5647 5641 5635 5629 5621 5614 5609 5605 5603 5602 5604 5600 5600 5599 5600 5604 5602 5603 5606 5609 5613 5617 5621 5624 5626 5630 5630
5710 5707 5705 5702 5698 5695 5698 5693 5683 5677 5677 5676 5670 5665 5660 5658 5656 5654 5649 5646 5641 5636 5630 5622 5613 5606 5599 5594 5591 5589 5588 5587 5586 5583 5581 5584 5588 5591 5591 5595 5596 5598 5603 5605 5611 5614 5618 5619 5619
5697 5694 5691 5687 5683 5679 5680 5685 5666 5666 5663 5659 5655 5650 5649 5646 5643 5639 5633 5627 5622 5615 5610 5601 5593 5588 5582 5581 5578 5577 5575 5573 5572 5571 5573 5575 5577 5580 5582 5585 5589 5593 5595 5599 5602 5604 5606 5607 5610
5684 5680 5675 5669 5671 5662 5659 5671 5656 5654 5650 5645 5643 5637 5635 5633 5630 5624 5617 5608 5601 5594 5587 5580 5574 5571 5570 5571 5571 5569 5568 5566 5563 5562 5565 5569 5570 5571 5575 5578 5582 5587 5589 5590 5590 5592 5596 5599 5599